Findlay, OH

2:39 AM EDT on August 23, 2017 (GMT -0400)
Findlay

Weather History for KFDY - February, 2014

Change the Weather History Date:

Tuesday, February 4, 2014

  Actual Average Record
Temperature  
Mean Temperature 13 °F -  
Max Temperature 23 °F 32 °F 57 °F (1986)
Min Temperature 3 °F 18 °F -8 °F (1985)
Degree Days  
Heating Degree Days 52    
Moisture  
Dew Point 14 °F    
Average Humidity 83    
Maximum Humidity 89    
Minimum Humidity 68    
Precipitation  
Precipitation 0.06 in - - ()
Sea Level Pressure  
Sea Level Pressure 30.25 in    
Wind  
Wind Speed 9 mph (NE)    
Max Wind Speed 23 mph    
Max Gust Speed 29 mph    
Visibility 4 miles    
Events Fog , Snow    
Averages and records for this station are not official NWS values.
T = Trace of Precipitation, MM = Missing Value Source: NWS Daily Summary

Daily Weather History Graph

Daily Weather History Graph

Search for Another Location

Airport or City:

Trip Planner

Search our weather history database for the weather conditions in past years. The results will help you decide how hot, cold, wet, or windy it might be!

Date:

Astronomy

Feb. 04, 2014 Rise Set
Actual Time 7:42 AM EST 5:55 PM EST
Civil Twilight 7:13 AM EST 6:24 PM EST
Nautical Twilight 6:40 AM EST 6:57 PM EST
Astronomical Twilight 6:08 AM EST 7:29 PM EST
Moon 10:16 AM EST (2/4) 11:51 PM EST (2/4)
Length of Visible Light 11h 11m
Length of Day
10h 13m
Waxing Crescent, 29% of the Moon is Illuminated
Feb 4
Waxing Crescent
Feb 6
First Quarter
Feb 14
Full
Feb 22
Last Quarter
Mar 1
New

Hourly Weather History & Observations

Time (EST) Temp. Windchill Dew Point Humidity Pressure Visibility Wind Dir Wind Speed Gust Speed Precip Events Conditions
12:53 AM 6.1 °F - 1.9 °F 83% 30.40 in 4.0 mi Calm Calm - N/A   Clear
1:53 AM 3.0 °F -4.4 °F -2.0 °F 80% 30.38 in 5.0 mi SE 3.5 mph - N/A   Haze
2:53 AM 3.9 °F - -0.0 °F 84% 30.40 in 5.0 mi Calm Calm - N/A   Clear
3:53 AM 8.1 °F 1.4 °F 3.0 °F 80% 30.39 in 5.0 mi ENE 3.5 mph - N/A   Haze
4:53 AM 8.1 °F - 5.0 °F 87% 30.41 in 5.0 mi Calm Calm - N/A   Clear
5:53 AM 10.0 °F - 5.0 °F 80% 30.43 in 4.0 mi Calm Calm - N/A   Haze
6:53 AM 14.0 °F 5.1 °F 10.0 °F 84% 30.40 in 6.0 mi ENE 5.8 mph - N/A   Clear
7:53 AM 15.1 °F 6.4 °F 10.9 °F 84% 30.42 in 7.0 mi NNE 5.8 mph - N/A   Clear
8:53 AM 15.1 °F 6.4 °F 10.9 °F 84% 30.46 in 6.0 mi NE 5.8 mph - N/A   Clear
9:53 AM 17.1 °F 5.8 °F 12.9 °F 84% 30.43 in 9.0 mi ENE 9.2 mph - N/A   Clear
10:53 AM 19.9 °F 8.6 °F 14.0 °F 78% 30.42 in 10.0 mi East 10.4 mph - N/A   Clear
11:53 AM 21.0 °F 9.3 °F 14.0 °F 74% 30.38 in 10.0 mi ENE 11.5 mph - N/A   Clear
12:53 PM 23.0 °F 12.4 °F 14.0 °F 68% 30.32 in 10.0 mi ENE 10.4 mph - N/A   Scattered Clouds
1:53 PM 23.0 °F 13.9 °F 14.0 °F 68% 30.32 in 10.0 mi ENE 8.1 mph - N/A   Mostly Cloudy
2:53 PM 23.0 °F 13.9 °F 14.0 °F 68% 30.32 in 10.0 mi East 8.1 mph - N/A   Overcast
3:53 PM 23.0 °F 13.9 °F 14.0 °F 68% 30.30 in 10.0 mi East 8.1 mph - N/A   Overcast
4:40 PM 23.0 °F 12.4 °F 16.0 °F 74% 30.24 in 4.0 mi NE 10.4 mph - 0.00 in Snow Light Snow
4:45 PM 23.0 °F 11.7 °F 16.0 °F 74% 30.24 in 1.8 mi NE 11.5 mph - 0.00 in Snow Light Snow
4:53 PM 21.9 °F 8.7 °F 16.0 °F 78% 30.27 in 0.5 mi NE 15.0 mph - 0.00 in Snow Snow
5:01 PM 21.9 °F 9.2 °F 17.1 °F 82% 30.24 in 0.2 mi NE 13.8 mph - 0.00 in Snow Heavy Snow
5:22 PM 21.0 °F 7.6 °F 17.1 °F 85% 30.24 in 0.5 mi NE 15.0 mph - 0.00 in Fog , Snow Snow
5:36 PM 21.0 °F 8.1 °F 18.0 °F 88% 30.23 in 0.8 mi NE 13.8 mph - 0.00 in Snow Light Snow
5:53 PM 21.0 °F 8.1 °F 18.0 °F 88% 30.26 in 1.0 mi NE 13.8 mph - 0.00 in Snow Light Snow
6:00 PM 21.0 °F 8.1 °F 18.0 °F 88% 30.22 in 0.8 mi NE 13.8 mph - 0.01 in Snow Light Snow
6:17 PM 21.0 °F 7.6 °F 18.0 °F 88% 30.23 in 0.5 mi NE 15.0 mph - 0.01 in Fog , Snow Snow
6:30 PM 19.9 °F 5.2 °F 17.1 °F 89% 30.23 in - NNE 17.3 mph - 0.02 in Snow Heavy Snow
6:53 PM 19.9 °F 5.2 °F 17.1 °F 89% 30.26 in 0.5 mi NE 17.3 mph - 0.02 in Fog , Snow Snow
7:53 PM 19.9 °F 5.2 °F 17.1 °F 89% 30.19 in 0.5 mi NE 17.3 mph - 0.02 in Fog , Snow Snow
8:04 PM 19.9 °F 4.3 °F 17.1 °F 89% 30.15 in 0.8 mi ENE 19.6 mph 24.2 mph 0.01 in Snow Light Snow
8:09 PM 19.9 °F 5.2 °F 17.1 °F 89% 30.15 in 1.0 mi ENE 17.3 mph - 0.01 in Snow Light Snow
8:53 PM 19.9 °F 7.3 °F 17.1 °F 89% 30.18 in 1.2 mi ENE 12.7 mph - 0.01 in Snow Light Snow
9:22 PM 19.9 °F 4.8 °F 17.1 °F 89% 30.11 in 0.8 mi ENE 18.4 mph - 0.00 in Snow Light Snow
9:31 PM 19.9 °F 4.8 °F 17.1 °F 89% 30.10 in 0.8 mi ENE 18.4 mph - 0.00 in Snow Light Snow
9:43 PM 19.9 °F 5.7 °F 17.1 °F 89% 30.11 in 1.0 mi NE 16.1 mph - 0.00 in Snow Light Snow
9:53 PM 19.9 °F 4.3 °F 17.1 °F 89% 30.13 in 1.0 mi NE 19.6 mph - 0.00 in Snow Light Snow
10:05 PM 19.9 °F 5.2 °F 17.1 °F 89% 30.09 in 1.0 mi ENE 17.3 mph - 0.01 in Snow Light Snow
10:22 PM 19.9 °F 5.7 °F 17.1 °F 89% 30.08 in 0.8 mi NE 16.1 mph - 0.01 in Snow Light Snow
10:30 PM 21.0 °F 6.6 °F 17.1 °F 85% 30.07 in 1.0 mi NE 17.3 mph - 0.01 in Snow Light Snow
10:53 PM 21.0 °F 7.1 °F 18.0 °F 88% 30.10 in 1.5 mi ENE 16.1 mph - 0.01 in Snow Light Snow
11:43 PM 21.0 °F 5.7 °F 18.0 °F 88% 30.03 in - NE 19.6 mph 25.3 mph 0.00 in Snow Light Snow
11:51 PM 21.2 °F 4.9 °F 17.6 °F 86% 30.02 in 1.5 mi NE 23.0 mph 28.8 mph 0.00 in Snow Light Snow
11:53 PM 21.0 °F 6.2 °F 18.0 °F 88% 30.04 in 1.5 mi NE 18.4 mph 28.8 mph 0.00 in Snow Light Snow